Queralbs





Hora UTC 22:10
Temperatura 12.8 ºC
Humitat 64.0 %
Pressió 1026.8 hPa
Pluja 0.0 mm
Velocitat vent 0.0 km/h
Direcció vent SE
Radiació solar 0.0 W/m²

Dades diàries 2022-10-05



Hora UTC (hivern +1h; estiu +2h)
Temperatura (ºC) Humitat (%) Pressió (hPa) Velocitat vent (km/h) Precipitació (mm) Radiació solar (W/m²)
Hora UTC Aire Humitat Pressió Vel. Dir. Vel. Max Dir. Intent. màx 5 min. Rad. Sol.
00:05 10.0 64.0 1024.3 0.0 SSW 0.0 0.0 0.0
00:10 9.9 64.0 1024.3 0.0 SSW 0.0 0.0 0.0
00:15 10.0 64.0 1024.3 0.0 SSW 0.0 0.0 0.0
00:20 10.1 63.0 1024.3 0.0 SSW 0.0 0.0 0.0
00:25 10.0 63.0 1024.3 0.0 SSW 0.0 0.0 0.0
00:30 10.0 63.0 1024.3 0.0 SSW 0.0 0.0 0.0
00:35 10.0 63.0 1024.2 0.0 SSW 0.0 0.0 0.0
00:40 10.1 63.0 1024.2 0.0 SSW 0.0 0.0 0.0
00:45 10.1 62.0 1024.1 0.0 SSW 0.0 0.0 0.0
00:50 10.2 62.0 1024.1 0.0 SSW 0.0 0.0 0.0
00:55 10.2 62.0 1024.1 0.0 SSW 0.0 0.0 0.0
01:00 10.2 62.0 1024.1 0.0 SSW 0.0 0.0 0.0
01:05 10.1 61.0 1024.1 0.0 SSW 0.0 0.0 0.0
01:10 10.0 60.0 1024.2 0.0 SSW 0.0 0.0 0.0
01:15 10.0 61.0 1024.1 0.0 SSW 0.0 0.0 0.0
01:20 10.0 61.0 1024.1 0.0 SSW 0.0 0.0 0.0
01:25 10.0 61.0 1024.1 0.0 SSW 0.0 0.0 0.0
01:30 9.9 61.0 1024.1 0.0 SSW 0.0 0.0 0.0
01:35 9.8 61.0 1024.1 0.0 SSW 0.0 0.0 0.0
01:40 9.8 61.0 1024.1 0.0 SSW 0.0 0.0 0.0
01:45 9.8 61.0 1023.9 0.0 SSW 0.0 0.0 0.0
01:50 9.8 61.0 1023.8 0.0 SSW 0.0 0.0 0.0
01:55 9.7 60.0 1023.8 0.0 SSW 0.0 0.0 0.0
02:00 9.6 60.0 1023.7 0.0 SSW 1.6 0.0 0.0
02:05 9.7 60.0 1023.6 0.0 SSW 1.6 0.0 0.0
02:10 9.8 60.0 1023.6 0.0 SSW 0.0 0.0 0.0
02:15 9.8 59.0 1023.4 0.0 SSW 0.0 0.0 0.0
02:20 9.7 60.0 1023.5 0.0 SSW 0.0 0.0 0.0
02:25 9.7 59.0 1023.5 0.0 SSW 0.0 0.0 0.0
02:30 9.7 59.0 1023.5 0.0 SSW 0.0 0.0 0.0
02:35 9.7 60.0 1023.4 0.0 SSW 0.0 0.0 0.0
02:40 9.4 60.0 1023.5 0.0 SSW 0.0 0.0 0.0
02:45 9.3 59.0 1023.5 0.0 SSW 0.0 0.0 0.0
02:50 9.3 59.0 1023.4 0.0 SSW 0.0 0.0 0.0
02:55 9.3 60.0 1023.4 0.0 SSW 0.0 0.0 0.0
03:00 9.3 60.0 1023.6 0.0 SSW 0.0 0.0 0.0
03:05 9.2 60.0 1023.6 0.0 SSW 0.0 0.0 0.0
03:10 9.2 60.0 1023.6 0.0 SSW 0.0 0.0 0.0
03:15 9.2 61.0 1023.6 0.0 SSW 0.0 0.0 0.0
03:20 9.2 61.0 1023.6 0.0 SSW 0.0 0.0 0.0
03:25 9.2 60.0 1023.7 0.0 SSW 0.0 0.0 0.0
03:30 9.2 59.0 1023.6 0.0 SSW 0.0 0.0 0.0
03:35 9.2 59.0 1023.6 0.0 SSW 0.0 0.0 0.0
03:40 9.3 59.0 1023.5 0.0 SSW 0.0 0.0 0.0
03:45 9.4 59.0 1023.6 0.0 SSW 0.0 0.0 0.0
03:50 9.7 59.0 1023.5 0.0 SSW 0.0 0.0 0.0
03:55 9.6 58.0 1023.6 0.0 SSW 0.0 0.0 0.0
04:00 9.6 58.0 1023.7 0.0 SSW 0.0 0.0 0.0
04:05 9.6 59.0 1023.6 0.0 SSW 0.0 0.0 0.0
04:10 9.5 60.0 1023.6 0.0 SSW 0.0 0.0 0.0
04:15 9.4 59.0 1023.8 0.0 SSW 0.0 0.0 0.0
04:20 9.4 59.0 1023.7 0.0 SSW 0.0 0.0 0.0
04:25 9.3 59.0 1023.7 0.0 SSW 0.0 0.0 0.0
04:30 9.4 58.0 1023.6 0.0 SSW 0.0 0.0 0.0
04:35 9.3 58.0 1023.6 0.0 SSW 0.0 0.0 0.0
04:40 9.3 58.0 1023.5 0.0 SSW 0.0 0.0 0.0
04:40 9.2 58.0 1023.5 0.0 SSW 0.0 0.0 0.0
04:50 9.4 58.0 1023.3 0.0 SSW 0.0 0.0 0.0
04:55 9.7 57.0 1023.3 0.0 SSW 0.0 0.0 0.0
05:00 9.8 58.0 1023.3 0.0 SSW 0.0 0.0 0.0
05:05 9.6 60.0 1023.3 0.0 SSW 0.0 0.0 0.0
05:10 9.4 59.0 1023.4 0.0 SSW 0.0 0.0 0.0
05:15 9.2 59.0 1023.4 0.0 SSW 0.0 0.0 0.0
05:20 9.2 59.0 1023.5 0.0 SSW 0.0 0.0 0.0
05:25 9.3 59.0 1023.6 0.0 SSW 0.0 0.0 0.0
05:30 9.3 60.0 1023.6 4.8 SSW 6.4 0.0 0.0
05:35 9.4 60.0 1023.7 0.0 SSW 6.4 0.0 0.0
05:40 9.5 60.0 1023.7 0.0 SSW 3.2 0.0 0.0
05:45 9.3 60.0 1023.6 0.0 SSW 1.6 0.0 0.0
05:50 9.4 60.0 1023.7 0.0 SSW 0.0 0.0 0.0
05:55 9.4 60.0 1023.7 0.0 SSW 0.0 0.0 0.0
06:00 9.6 60.0 1023.8 0.0 SSW 0.0 0.0 0.0
06:05 9.7 61.0 1023.7 0.0 SSW 0.0 0.0 0.0
06:10 9.8 61.0 1023.7 1.6 SW 4.8 0.0 0.0
06:15 9.7 61.0 1023.8 0.0 SW 4.8 0.0 0.0
06:20 9.6 59.0 1023.6 0.0 SW 0.0 0.0 0.0
06:25 9.5 60.0 1023.7 0.0 SW 0.0 0.0 0.0
06:30 9.5 60.0 1023.7 0.0 SW 0.0 0.0 0.0
06:35 9.6 60.0 1023.7 0.0 SW 0.0 0.0 0.0
06:40 9.6 60.0 1023.8 1.6 SW 3.2 0.0 0.0
06:45 9.6 60.0 1023.9 0.0 SW 3.2 0.0 0.0
06:50 9.4 61.0 1024.0 0.0 SW 3.2 0.0 0.0
06:55 9.3 61.0 1024.1 0.0 SW 3.2 0.0 0.0
07:00 9.6 62.0 1024.1 0.0 SW 0.0 0.0 0.0
07:05 9.9 61.0 1024.1 0.0 SW 1.6 0.0 0.0
07:10 10.3 61.0 1024.3 0.0 SW 1.6 0.0 0.0
07:15 10.4 60.0 1024.3 0.0 SW 0.0 0.0 0.0
07:20 10.8 60.0 1024.2 0.0 SW 0.0 0.0 0.0
07:25 11.3 60.0 1024.4 0.0 SW 1.6 0.0 0.0
07:30 11.9 59.0 1024.5 0.0 SW 1.6 0.0 0.0
07:35 12.5 58.0 1024.5 0.0 SW 1.6 0.0 0.0
07:40 13.1 56.0 1024.5 0.0 SW 0.0 0.0 0.0
07:45 13.6 50.0 1024.6 0.0 SW 0.0 0.0 0.0
07:50 13.9 51.0 1024.6 0.0 SW 0.0 0.0 0.0
07:55 14.5 51.0 1024.4 1.6 SW 3.2 0.0 0.0
08:00 14.9 51.0 1024.4 3.2 SW 3.2 0.0 0.0
08:05 15.1 50.0 1024.5 1.6 SW 4.8 0.0 0.0
08:10 15.3 52.0 1024.6 3.2 SW 4.8 0.0 0.0
08:15 15.8 54.0 1024.8 0.0 SSW 4.8 0.0 0.0
08:20 15.8 50.0 1024.9 1.6 SSW 4.8 0.0 0.0
08:25 16.0 49.0 1024.8 0.0 SSW 4.8 0.0 0.0
08:30 16.2 50.0 1025.0 1.6 SSW 3.2 0.0 0.0
08:35 16.4 50.0 1025.1 1.6 SSW 3.2 0.0 0.0
08:40 16.6 51.0 1025.0 1.6 SSW 4.8 0.0 0.0
08:45 16.8 51.0 1024.9 3.2 SSW 4.8 0.0 0.0
08:50 16.9 51.0 1024.9 3.2 SSW 4.8 0.0 0.0
08:55 17.1 49.0 1025.0 1.6 SSW 4.8 0.0 0.0
09:00 17.2 50.0 1024.9 4.8 SSW 4.8 0.0 0.0
09:05 17.4 49.0 1024.8 3.2 S 6.4 0.0 0.0
09:10 17.6 48.0 1024.9 3.2 S 4.8 0.0 0.0
09:15 17.8 49.0 1025.0 1.6 S 4.8 0.0 0.0
09:20 18.1 48.0 1024.9 0.0 S 3.2 0.0 0.0
09:25 18.2 48.0 1024.9 3.2 S 6.4 0.0 0.0
09:30 18.4 48.0 1024.9 4.8 S 8.0 0.0 0.0
09:35 18.4 48.0 1024.7 3.2 S 9.7 0.0 0.0
09:40 18.6 49.0 1024.7 9.7 SSE 9.7 0.0 0.0
09:45 18.8 50.0 1024.9 4.8 SSE 11.3 0.0 0.0
09:50 18.8 49.0 1024.9 3.2 SSE 11.3 0.0 0.0
09:55 18.8 49.0 1024.9 6.4 SSE 12.9 0.0 0.0
10:00 18.9 48.0 1025.0 9.7 SSE 12.9 0.0 0.0
10:05 19.1 49.0 1025.1 11.3 SSE 12.9 0.0 0.0
10:10 19.2 49.0 1025.1 9.7 SE 12.9 0.0 0.0
10:15 19.2 48.0 1025.1 6.4 SE 12.9 0.0 0.0
10:20 19.3 49.0 1025.0 8.0 SSE 12.9 0.0 0.0
10:25 19.4 49.0 1024.9 6.4 SSE 14.5 0.0 0.0
10:30 19.6 49.0 1024.9 6.4 SE 14.5 0.0 0.0
10:35 19.8 48.0 1024.9 9.7 SSE 12.9 0.0 0.0
10:40 19.8 47.0 1024.8 6.4 SSE 11.3 0.0 0.0
10:45 19.9 48.0 1024.8 6.4 SSE 11.3 0.0 0.0
10:50 20.1 46.0 1024.8 9.7 SSE 11.3 0.0 0.0
10:55 20.2 47.0 1024.7 11.3 SSE 12.9 0.0 0.0
11:00 20.3 46.0 1024.7 8.0 S 14.5 0.0 0.0
11:05 20.1 47.0 1024.7 8.0 SSE 12.9 0.0 0.0
11:10 20.2 48.0 1024.5 9.7 SSE 12.9 0.0 0.0
11:15 20.3 45.0 1024.5 8.0 S 12.9 0.0 0.0
11:20 20.1 47.0 1024.5 9.7 S 12.9 0.0 0.0
11:25 20.2 47.0 1024.5 9.7 SSE 14.5 0.0 0.0
11:30 20.3 46.0 1024.5 6.4 S 14.5 0.0 0.0
11:35 20.4 46.0 1024.5 6.4 SSE 14.5 0.0 0.0
11:40 20.3 45.0 1024.5 14.5 SSE 17.7 0.0 0.0
11:45 20.3 46.0 1024.3 12.9 SE 19.3 0.0 0.0
11:50 20.4 46.0 1024.4 8.0 S 16.1 0.0 0.0
11:55 20.2 45.0 1024.5 12.9 SE 16.1 0.0 0.0
12:00 20.0 46.0 1024.3 8.0 SSE 16.1 0.0 0.0
12:05 19.9 45.0 1024.2 6.4 SSE 14.5 0.0 0.0
12:10 20.2 46.0 1024.1 6.4 SSE 14.5 0.0 0.0
12:15 20.1 46.0 1024.1 9.7 S 17.7 0.0 0.0
12:20 20.2 44.0 1024.2 6.4 S 16.1 0.0 0.0
12:25 19.9 45.0 1024.2 12.9 SSW 16.1 0.0 0.0
12:30 19.8 45.0 1024.0 6.4 SSE 16.1 0.0 0.0
12:35 19.8 46.0 1023.9 6.4 SE 16.1 0.0 0.0
12:40 20.2 45.0 1023.8 12.9 SSE 16.1 0.0 0.0
12:45 20.4 45.0 1023.7 9.7 SSE 16.1 0.0 0.0
12:50 20.6 44.0 1023.7 8.0 SSE 14.5 0.0 0.0
12:55 20.6 44.0 1023.6 4.8 SSE 17.7 0.0 0.0
13:00 20.8 44.0 1023.6 8.0 SSE 17.7 0.0 0.0
13:05 20.9 42.0 1023.7 9.7 SSE 14.5 0.0 0.0
13:10 21.1 43.0 1023.7 12.9 E 17.7 0.0 0.0
13:15 21.1 42.0 1023.7 8.0 SSW 17.7 0.0 0.0
13:20 21.1 42.0 1023.7 19.3 SSE 20.9 0.0 0.0
13:25 21.1 43.0 1023.6 9.7 S 19.3 0.0 0.0
13:30 21.2 42.0 1023.6 6.4 S 17.7 0.0 0.0
13:35 21.2 42.0 1023.7 14.5 S 17.7 0.0 0.0
13:40 21.1 41.0 1023.8 11.3 SSW 16.1 0.0 0.0
13:45 21.0 42.0 1023.8 3.2 SE 17.7 0.0 0.0
13:50 20.9 41.0 1023.9 6.4 SE 17.7 0.0 0.0
13:55 20.7 43.0 1023.8 4.8 SSE 14.5 0.0 0.0
14:00 20.6 42.0 1023.7 9.7 S 12.9 0.0 0.0
14:05 20.7 43.0 1023.6 6.4 ESE 12.9 0.0 0.0
14:10 20.7 43.0 1023.6 8.0 SSE 11.3 0.0 0.0
14:15 20.6 42.0 1023.6 6.4 SSE 12.9 0.0 0.0
14:20 20.1 43.0 1023.7 3.2 SSE 14.5 0.0 0.0
14:25 19.8 45.0 1023.7 4.8 SSE 14.5 0.0 0.0
14:30 19.5 44.0 1023.7 4.8 S 14.5 0.0 0.0
14:35 19.2 45.0 1023.7 4.8 SSE 14.5 0.0 0.0
14:40 19.1 46.0 1023.5 9.7 SSW 12.9 0.0 0.0
14:45 18.9 45.0 1023.6 4.8 S 11.3 0.0 0.0
14:50 18.8 46.0 1023.5 8.0 SSE 9.7 0.0 0.0
14:55 18.9 47.0 1023.5 4.8 SSE 11.3 0.0 0.0
15:00 18.9 49.0 1023.5 1.6 SE 12.9 0.0 0.0
15:05 18.9 48.0 1023.4 8.0 SSE 9.7 0.0 0.0
15:10 18.8 48.0 1023.4 4.8 SE 9.7 0.0 0.0
15:15 18.7 49.0 1023.4 8.0 SSE 14.5 0.0 0.0
15:20 18.6 50.0 1023.5 1.6 SSW 14.5 0.0 0.0
15:25 18.4 51.0 1023.5 9.7 SSE 12.9 0.0 0.0
15:30 18.3 50.0 1023.7 6.4 S 12.9 0.0 0.0
15:35 18.1 51.0 1023.7 3.2 SSW 11.3 0.0 0.0
15:40 18.1 53.0 1023.8 3.2 SW 9.7 0.0 0.0
15:45 18.0 53.0 1023.7 1.6 SW 8.0 0.0 0.0
15:50 18.0 54.0 1023.9 6.4 SSE 9.7 0.0 0.0
15:55 17.9 54.0 1024.0 4.8 SSE 9.7 0.0 0.0
16:00 17.7 53.0 1023.9 1.6 S 8.0 0.0 0.0
16:05 17.6 54.0 1023.9 3.2 S 9.7 0.0 0.0
16:10 17.4 53.0 1024.1 6.4 S 9.7 0.0 0.0
16:15 17.3 54.0 1024.0 3.2 S 8.0 0.0 0.0
16:20 17.2 54.0 1024.1 3.2 S 9.7 0.0 0.0
16:25 17.1 54.0 1024.2 1.6 SSW 11.3 0.0 0.0
16:30 17.1 54.0 1024.2 8.0 S 11.3 0.0 0.0
16:35 17.0 54.0 1024.2 4.8 S 9.7 0.0 0.0
16:40 16.9 53.0 1024.2 0.0 S 8.0 0.0 0.0
16:45 16.9 54.0 1024.2 1.6 S 8.0 0.0 0.0
16:50 16.9 55.0 1024.2 1.6 S 6.4 0.0 0.0
16:55 16.8 55.0 1024.2 3.2 S 6.4 0.0 0.0
17:00 16.8 56.0 1024.2 1.6 S 6.4 0.0 0.0
17:05 16.7 56.0 1024.3 0.0 S 6.4 0.0 0.0
17:10 16.5 57.0 1024.4 0.0 S 6.4 0.0 0.0
17:15 16.4 57.0 1024.4 1.6 S 6.4 0.0 0.0
17:20 16.4 58.0 1024.7 0.0 S 3.2 0.0 0.0
17:25 16.3 59.0 1024.7 0.0 S 4.8 0.0 0.0
17:30 16.2 59.0 1024.6 0.0 S 4.8 0.0 0.0
17:35 16.1 60.0 1024.6 0.0 S 4.8 0.0 0.0
17:40 16.1 61.0 1024.6 1.6 S 6.4 0.0 0.0
17:45 16.0 61.0 1024.7 4.8 S 6.4 0.0 0.0
17:50 15.8 62.0 1024.6 4.8 S 4.8 0.0 0.0
17:55 15.8 62.0 1024.9 0.0 S 4.8 0.0 0.0
18:00 15.7 63.0 1024.9 0.0 S 4.8 0.0 0.0
18:05 15.6 64.0 1025.0 1.6 S 4.8 0.0 0.0
18:10 15.6 64.0 1025.0 0.0 ENE 6.4 0.0 0.0
18:15 15.5 65.0 1025.0 4.8 ESE 6.4 0.0 0.0
18:20 15.3 65.0 1025.1 0.0 ESE 9.7 0.0 0.0
18:25 15.1 65.0 1025.2 4.8 ESE 9.7 0.0 0.0
18:30 14.9 65.0 1025.3 1.6 SE 11.3 0.0 0.0
18:35 14.8 65.0 1025.4 1.6 ESE 9.7 0.0 0.0
18:40 14.6 65.0 1025.5 4.8 ESE 11.3 0.0 0.0
18:45 14.6 65.0 1025.6 3.2 ESE 11.3 0.0 0.0
18:50 14.5 65.0 1025.6 3.2 ESE 9.7 0.0 0.0
18:55 14.4 65.0 1025.7 1.6 ESE 9.7 0.0 0.0
19:00 14.4 64.0 1025.6 3.2 ESE 6.4 0.0 0.0
19:05 14.3 64.0 1025.9 3.2 SE 6.4 0.0 0.0
19:10 14.3 64.0 1025.8 1.6 SE 6.4 0.0 0.0
19:15 14.3 64.0 1025.8 1.6 SE 6.4 0.0 0.0
19:20 14.2 64.0 1025.8 3.2 SE 6.4 0.0 0.0
19:25 14.2 64.0 1025.9 1.6 SE 6.4 0.0 0.0
19:30 14.2 64.0 1025.8 0.0 SE 3.2 0.0 0.0
19:35 14.1 64.0 1025.8 3.2 SE 4.8 0.0 0.0
19:40 14.1 64.0 1025.9 0.0 SE 4.8 0.0 0.0
19:45 13.9 64.0 1026.0 3.2 SE 6.4 0.0 0.0
19:50 13.9 64.0 1026.2 0.0 SE 6.4 0.0 0.0
19:55 13.8 64.0 1026.2 3.2 SE 6.4 0.0 0.0
20:00 13.8 64.0 1026.3 1.6 SE 6.4 0.0 0.0
20:05 13.7 64.0 1026.3 0.0 SE 6.4 0.0 0.0
20:10 13.7 64.0 1026.3 1.6 SE 4.8 0.0 0.0
20:15 13.6 64.0 1026.4 0.0 SE 3.2 0.0 0.0
20:20 13.6 64.0 1026.4 0.0 SE 3.2 0.0 0.0
20:25 13.6 64.0 1026.4 1.6 SE 3.2 0.0 0.0
20:30 13.6 64.0 1026.4 0.0 SE 3.2 0.0 0.0
20:35 13.5 64.0 1026.5 0.0 SE 1.6 0.0 0.0
20:40 13.4 64.0 1026.5 0.0 SE 1.6 0.0 0.0
20:45 13.4 64.0 1026.7 0.0 SE 1.6 0.0 0.0
20:50 13.4 64.0 1026.5 0.0 SE 0.0 0.0 0.0
20:55 13.3 64.0 1026.6 0.0 SE 0.0 0.0 0.0
21:00 13.3 64.0 1026.6 0.0 SE 0.0 0.0 0.0
21:05 13.3 64.0 1026.6 0.0 SE 0.0 0.0 0.0
21:10 13.2 64.0 1026.7 0.0 SE 0.0 0.0 0.0
21:15 13.2 64.0 1026.7 0.0 SE 0.0 0.0 0.0
21:20 13.2 64.0 1026.7 0.0 SE 0.0 0.0 0.0
21:25 13.2 64.0 1026.7 0.0 SE 0.0 0.0 0.0
21:30 13.2 64.0 1026.7 0.0 SE 0.0 0.0 0.0
21:35 13.2 64.0 1026.8 0.0 SE 0.0 0.0 0.0
21:40 13.2 64.0 1026.9 0.0 SE 0.0 0.0 0.0
21:45 13.2 64.0 1026.8 0.0 SE 0.0 0.0 0.0
21:50 13.1 64.0 1026.8 0.0 SE 0.0 0.0 0.0
21:55 13.1 64.0 1026.6 0.0 SE 0.0 0.0 0.0
22:00 12.9 64.0 1026.7 0.0 SE 0.0 0.0 0.0
22:05 12.8 64.0 1026.8 0.0 SE 1.6 0.0 0.0
22:10 12.8 64.0 1026.8 0.0 SE 1.6 0.0 0.0
Màxima 21.3 65.0 1026.9 19.3 SSE 20.9 0.0 0.0
Mínima 9.2 41.0 1023.3
Total 0.0